IRIDIUM 138 (43071 NORAD) Tracking and Keplerian Element Data

This shows tracking and keplerian element data for the satellite.

Feedback or suggestion? Click here.




ElementValue
Catalog43071
NameIRIDIUM 138
Epoch Orbit33819
Epoch Day160.04924644
Epoch Year2024
RAAN270.6052
Inclination86.3946
Eccentricity0.0002085
Argument of Perigee91.5609
Mean Anonmoly268.5826
Mean Motion14.34219328
Decay Rate8.6E-07
L11 43071U 17083B 24160.04924644 .00000086 00000+0 23526-4 0 9995
L22 43071 86.3946 270.6052 0002085 91.5609 268.5826 14.34219328338198



Live tracking and technical data element details for IRIDIUM 138 (NORAD 43071). IRIDIUM 138 can be tracked NOW for your location showing map with azimuth and elevation plus other details from your city location.







IsCatalogInMostPopularTable: catalog: 43071, numindb: 702
Update: records affected: 1



GetName: 43071 IRIDIUM 138

Hit Count: updated at: Fri, 14 Jun 2024 18:50:15 GMT